Mt. Pocono, PA

6:21 AM EST on December 13, 2019 (GMT -0500)
Pocono Mountains Municipal

Weather History for KMPO - September, 2019

Change the Weather History Date:

Monday, September 2, 2019

  Actual Average Record
Temperature  
Mean Temperature 66 °F 64 °F  
Max Temperature 73 °F 73 °F 95 °F (1953)
Min Temperature 60 °F 55 °F 36 °F (1906)
Degree Days  
Heating Degree Days 0 3  
Month to date heating degree days 2 6  
Since 1 July heating degree days 43 69  
Cooling Degree Days 2 1  
Month to date cooling degree days 2 2  
Year to date cooling degree days 320 298  
Growing Degree Days 16 (Base 50)    
Moisture  
Dew Point 63 °F    
Average Humidity 93    
Maximum Humidity 100    
Minimum Humidity 71    
Precipitation  
Precipitation 0.72 in 0.16 in 2.30 in (1926)
Month to date precipitation 0.72 0.30  
Year to date precipitation 35.65 31.28  
Sea Level Pressure  
Sea Level Pressure 30.08 in    
Wind  
Wind Speed 9 mph ()    
Max Wind Speed 16 mph    
Max Gust Speed 24 mph    
Visibility 8.4 miles    
Events Rain    
T = Trace of Precipitation, MM = Missing Value Source: Averaged Metar Reports

Daily Weather History Graph

Daily Weather History Graph

Search for Another Location

Airport or City:

Astronomy

Sep. 02, 2019 Rise Set
Actual Time 6:28 AM EDT 7:32 PM EDT
Civil Twilight 6:00 AM EDT 8:01 PM EDT
Nautical Twilight 5:26 AM EDT 8:34 PM EDT
Astronomical Twilight 4:51 AM EDT 9:09 PM EDT
Moon 10:10 AM EDT (9/2) 9:51 PM EDT (9/2)
Length of Visible Light 14h 00m
Length of Day
13h 04m
Waxing Crescent, 15% of the Moon is Illuminated
Sep 2
Waxing Crescent
Sep 5
First Quarter
Sep 14
Full
Sep 21
Last Quarter
Sep 28
New

Hourly Weather History & Observations

Time (EDT) Temp. Dew Point Humidity Pressure Visibility Wind Dir Wind Speed Gust Speed Precip Events Conditions
12:53 AM 62.1 °F 61.0 °F 96% 30.22 in 10.0 mi SSE 12.7 mph 19.6 mph N/A   Overcast
1:53 AM 62.1 °F 61.0 °F 96% 30.20 in 10.0 mi SE 8.1 mph - N/A   Overcast
2:02 AM 62.1 °F 61.0 °F 96% 30.21 in 10.0 mi SE 9.2 mph - N/A   Overcast
2:53 AM 62.1 °F 61.0 °F 96% 30.17 in 10.0 mi SE 11.5 mph - N/A   Overcast
3:53 AM 61.0 °F 61.0 °F 100% 30.16 in 10.0 mi SSE 10.4 mph - N/A   Overcast
4:53 AM 61.0 °F 61.0 °F 100% 30.14 in 10.0 mi SSE 9.2 mph - N/A   Overcast
5:53 AM 61.0 °F 61.0 °F 100% 30.14 in 5.0 mi SSE 6.9 mph - N/A   Overcast
6:02 AM 61.0 °F 61.0 °F 100% 30.14 in 1.8 mi SE 11.5 mph - N/A   Overcast
6:51 AM 60.8 °F 60.8 °F 100% 30.13 in 3.0 mi SSE 10.4 mph - 0.01 in Rain Light Rain
6:53 AM 61.0 °F 61.0 °F 100% 30.12 in 4.0 mi SSE 10.4 mph - 0.01 in Rain Light Rain
7:03 AM 61.0 °F 61.0 °F 100% 30.13 in 1.8 mi SSE 9.2 mph - 0.00 in Rain Light Rain
7:34 AM 61.0 °F 61.0 °F 100% 30.11 in 0.8 mi SSE 8.1 mph 16.1 mph 0.05 in Rain Light Rain
7:48 AM 60.8 °F 60.8 °F 100% 30.10 in 1.0 mi SSE 10.4 mph - 0.08 in Rain Rain
7:53 AM 61.0 °F 61.0 °F 100% 30.09 in 1.2 mi SSE 11.5 mph - 0.09 in Rain Rain
7:59 AM 61.0 °F 61.0 °F 100% 30.11 in 3.0 mi SSE 12.7 mph 24.2 mph 0.01 in Rain Light Rain
8:53 AM 62.1 °F 62.1 °F 100% 30.08 in 10.0 mi South 13.8 mph 20.7 mph 0.19 in Rain Rain
9:21 AM 63.0 °F 63.0 °F 100% 30.09 in 10.0 mi South 9.2 mph - 0.01 in Rain Light Rain
9:38 AM 63.0 °F 63.0 °F 100% 30.09 in 10.0 mi South 10.4 mph 18.4 mph 0.02 in Rain Light Rain
9:53 AM 63.0 °F 63.0 °F 100% 30.07 in 10.0 mi SSW 10.4 mph - 0.05 in Rain Rain
10:38 AM 62.1 °F 62.1 °F 100% 30.10 in 10.0 mi SW 8.1 mph - 0.19 in Rain Light Rain
10:53 AM 62.1 °F 62.1 °F 100% 30.08 in 8.0 mi SSW 9.2 mph - 0.25 in Rain Light Rain
11:53 AM 63.0 °F 63.0 °F 100% 30.06 in 10.0 mi West 6.9 mph - 0.13 in   Overcast
12:45 PM 66.0 °F 66.0 °F 100% 30.07 in 10.0 mi WSW 10.4 mph - 0.00 in   Overcast
12:53 PM 66.0 °F 64.9 °F 96% 30.05 in 10.0 mi WSW 10.4 mph - 0.00 in   Overcast
1:04 PM 66.0 °F 64.9 °F 96% 30.06 in 10.0 mi WSW 10.4 mph - N/A   Overcast
1:19 PM 66.9 °F 64.9 °F 93% 30.06 in 10.0 mi WSW 10.4 mph - N/A   Overcast
1:40 PM 66.9 °F 64.9 °F 93% 30.05 in 10.0 mi WSW 9.2 mph - N/A   Overcast
1:53 PM 66.9 °F 64.9 °F 93% 30.03 in 10.0 mi WSW 10.4 mph - N/A   Overcast
2:02 PM 66.9 °F 64.9 °F 93% 30.05 in 10.0 mi West 9.2 mph - N/A   Overcast
2:13 PM 68.0 °F 64.0 °F 87% 30.05 in 10.0 mi West 10.4 mph - N/A   Overcast
2:53 PM 71.1 °F 64.0 °F 78% 30.01 in 10.0 mi West 11.5 mph - N/A   Mostly Cloudy
3:20 PM 70.0 °F 64.0 °F 81% 30.03 in 10.0 mi West 9.2 mph - N/A   Overcast
3:32 PM 70.0 °F 64.0 °F 81% 30.02 in 10.0 mi WSW 8.1 mph - N/A   Overcast
3:53 PM 72.0 °F 63.0 °F 73% 29.99 in 10.0 mi WSW 9.2 mph - N/A   Scattered Clouds
4:20 PM 73.0 °F 63.0 °F 71% 30.01 in 10.0 mi WSW 12.7 mph - N/A   Mostly Cloudy
4:29 PM 73.0 °F 63.0 °F 71% 30.01 in 10.0 mi West 11.5 mph - N/A   Scattered Clouds
4:53 PM 72.0 °F 62.1 °F 71% 30.00 in 10.0 mi West 9.2 mph - N/A   Mostly Cloudy
5:53 PM 70.0 °F 63.0 °F 78% 30.00 in 10.0 mi West 8.1 mph - N/A   Clear
6:53 PM 70.0 °F 63.0 °F 78% 30.01 in 10.0 mi West 8.1 mph - N/A   Partly Cloudy
7:53 PM 66.0 °F 63.0 °F 90% 30.01 in 10.0 mi WNW 5.8 mph - N/A   Mostly Cloudy
8:53 PM 64.9 °F 64.0 °F 97% 30.03 in 10.0 mi NW 5.8 mph - N/A   Scattered Clouds
9:53 PM 64.0 °F 63.0 °F 96% 30.05 in 10.0 mi NW 4.6 mph - N/A   Overcast
10:53 PM 63.0 °F 62.1 °F 97% 30.05 in 10.0 mi NNW 9.2 mph - N/A   Mostly Cloudy
11:53 PM 62.1 °F 62.1 °F 100% 30.06 in 10.0 mi NW 4.6 mph - N/A   Mostly Cloudy